Weather in Shalya

Russia / Sverdlovsk Oblast     57°15′04″N   58°43′55″E
temp.,
°C
wind,
m/s
gust,
m/s
humid.,
%
clouds,
%
prec.,
mm/h
press.,
hPa
HPBL,
m
20 june, sun
sun2023:00+17w41492100 2.6 1010477
02:00+16wnw5159671 0.9 1009614
05:00+15wnw513976 0.9 1011568
08:00+17nw613555 0.0 10121425
11:00+18nw712325 0.0 10141663
14:00+19nw813260 0.0 10141956
17:00+19nnw714294 0.0 10162249
20:00+16nnw613385 0.0 10181859
21 june, mon
mon2123:00+12nnw411440 0.0 1020887
02:00+7nw22635 0.0 102124
05:00+6nnw11695 0.0 102317
08:00+12n23475 0.0 1024556
11:00+17nnw243268 0.0 10231235
14:00+20nw342827 0.0 10221592
17:00+21wnw4435100 0.0 10211534
20:00+17w2570100 0.1 1020223
22 june, tue
tue2223:00+14ssw1186100 0.3 101926
02:00+12sw239838 0.7 101976
05:00+13wsw119995 1.1 101833
08:00+17wnw249246 0.3 1017278
11:00+24wnw47625 0.5 10161042
14:00+28nnw510394 0.6 10162481
17:00+28nw69356 0.6 10152671
20:00+24nw38542 0.0 1016325
23 june, wed
wed2323:00+17nw11815 0.0 101611
02:00+16nw228670 0.0 101618
05:00+15ene2490100 0.0 1017101
08:00+14se3896100 0.5 1017291
11:00+15se3495100 1.3 1017306
14:00+15e349870 1.8 1018291
17:00+18ene237599 1.8 1018752
20:00+17ese34768 0.0 1018470
24 june, thu
thu2423:00+13se26905 0.0 1018223
02:00+10se229919 0.0 101938
05:00+12se119567 0.0 101839
08:00+15se118167 0.0 1017198
11:00+20sse11676 0.0 1016483
14:00+25nnw234970 0.0 10151795
17:00+24sw2462100 0.0 1014292
20:00+22s127198 0.0 101232